Notices

What's New in latest Release from April 7th, 2021:

- Updated Glossary, including Speed of Maximum Gust, and Total Hourly Precipitation

- Updated national and regional climate services offices contacts and prices information

- Addition of station inventory lists for 1981-2010, 1971-2000, and 1961-1990 Normals.

If you haven't already, please take our survey and provide feedback about our website: https://eccc.sondage-survey.ca/f/LanguageSelection.aspx?s=442ca660-fcf1-47c0-95a9-59707d6fd709

Hourly Data Report for March 03, 2010

HALIFAX STANFIELD INT'L A
NOVA SCOTIA

44°52'48.060" N
63°30'00.050" W
145.40 m
8202250
71395
YHZ

Download Data

Hourly Data (March 2010)
Hourly Data Report for March 3, 2010
TIME
LST
Temp Definition
°C
Dew Point Definition
°C
Rel Hum Definition
%
Precip. Amount Definition
mm

Wind Dir Definition
10's deg

Wind Spd Definition
km/h
Visibility Definition
km
Stn Press Definition
kPa
Hmdx Definition


Wind Chill Definition


Weather Definition


00:00 -2.1 -3.9 87   35 24 16.1 99.03   -8 Snow Showers
01:00 -2.0 -4.2 85   34 32 24.1 99.03   -9 Cloudy
02:00 -2.1 -4.1 86   36 26 24.1 99.02   -9 Snow Showers
03:00 -2.1 -4.5 84   35 30 24.1 99.01   -9 Snow Showers
04:00 -2.1 -4.8 82   36 22 24.1 99.02   -8 Snow Showers
05:00 -2.2 -4.8 82   36 24 24.1 99.02   -9 Snow Showers
06:00 -2.3 -5.1 81   1 26 24.1 98.95   -9 Snow Showers
07:00 -2.2 -5.0 81   36 13 24.1 99.03   -7 Snow Showers
08:00 -2.2 -5.3 79   36 22 24.1 99.11   -8 Snow Showers
09:00 -2.0 -4.5 83   1 20 24.1 99.02   -8 Snow Showers
10:00 -1.5 -4.2 82   2 28 24.1 98.94   -8 Snow Showers
11:00 -1.0 -4.6 77   2 28 24.1 98.86   -8 Snow Showers
12:00 -0.4 -3.8 78   2 20 24.1 98.78   -6 Snow Showers
13:00 -0.2 -3.6 78   36 17 24.1 98.88   -5 Snow Showers
14:00 0.3 -3.4 76   1 20 24.1 98.78     Snow Showers
15:00 -0.2 -2.7 83   2 19 24.1 98.68   -5 Snow Showers
16:00 -0.7 -2.3 89   2 22 19.3 98.65   -6 Snow Showers
17:00 -0.7 -2.7 86   3 17 16.1 98.68   -6 Snow Showers
18:00 -1.1 -2.3 92   1 22 6.4 98.63   -7 Snow Showers
19:00 -1.0 -2.9 87   2 19 11.3 98.60   -6 Snow Showers
20:00 -1.4 -3.1 88   2 20 9.7 98.58   -7 Snow Showers
21:00 -1.8 -3.3 89   3 19 6.4 98.56   -7 Snow Showers
22:00 -1.9 -3.9 86   2 24 12.9 98.44   -8 Snow Showers
23:00 -1.9 -3.8 87   2 24 19.3 98.35   -8 Snow Showers

Notes on Data Quality.

Legend

  • E = Estimated
  • M = Missing
  • NA = Not Available*
  • [empty] = Indicates an unobserved value
Date modified: